This is the latest recevied weather packets stored in our database for station/object W0AKO. If no packets are shown the sender has not sent any weather packets the latest 10 day(s).
| Time | Temp. | Humidity | Pressure | Rain* | Wind** | Luminosity | Snow |
|---|---|---|---|---|---|---|---|
| 1777401044 | 19.44° C | 10% | 1020.4 hPa | 0 mm | - | 685 W/m² | - |
| 1777400740 | 18.89° C | 10% | 1020.6 hPa | 0 mm | - | 807 W/m² | - |
| 1777400438 | 19.44° C | 10% | 1020.5 hPa | 0 mm | - | 698 W/m² | - |
| 1777400132 | 19.44° C | 10% | 1020.2 hPa | 0 mm | - | 722 W/m² | - |
| 1777399830 | 20° C | 10% | 1020.4 hPa | 0 mm | - | 552 W/m² | - |
| 1777399527 | 18.89° C | 10% | 1020.6 hPa | 0 mm | - | 738 W/m² | - |
| 1777399224 | 18.33° C | 10% | 1020.5 hPa | 0 mm | - | 525 W/m² | - |
| 1777398922 | 18.89° C | 10% | 1020.6 hPa | 0 mm | - | 818 W/m² | - |
| 1777398618 | 18.33° C | 10% | 1020.8 hPa | 0 mm | - | 838 W/m² | - |
| 1777398315 | 18.33° C | 10% | 1020.8 hPa | 0 mm | - | 842 W/m² | - |
| 1777398012 | 18.89° C | 10% | 1020.8 hPa | 0 mm | - | 857 W/m² | - |
| 1777397708 | 17.78° C | 10% | 1020.8 hPa | 0 mm | - | 788 W/m² | - |
| 1777397404 | 18.89° C | 10% | 1021 hPa | 0 mm | - | 766 W/m² | - |
| 1777397101 | 17.78° C | 10% | 1020.9 hPa | 0 mm | - | 784 W/m² | - |
| 1777396797 | 16.67° C | 10% | 1021 hPa | 0 mm | - | 775 W/m² | - |
| 1777396494 | 17.78° C | 10% | 1020.8 hPa | 0 mm | - | 741 W/m² | - |
| 1777396191 | 16.11° C | 10% | 1020.9 hPa | 0 mm | - | 704 W/m² | - |
| 1777395887 | 17.22° C | 10% | 1020.9 hPa | 0 mm | - | 617 W/m² | - |
| 1777395582 | 16.67° C | 10% | 1020.6 hPa | 0 mm | - | 599 W/m² | - |
| 1777395279 | 16.11° C | 10% | 1020.7 hPa | 0 mm | - | 615 W/m² | - |
| 1777394977 | 16.11° C | 10% | 1020.9 hPa | 0 mm | - | 602 W/m² | - |
| 1777394673 | 16.11° C | 10% | 1020.8 hPa | 0 mm | - | 529 W/m² | - |
| 1777394369 | 16.67° C | 10% | 1021 hPa | 0 mm | - | 529 W/m² | - |
| 1777394066 | 16.11° C | 10% | 1021.3 hPa | 0 mm | - | 544 W/m² | - |
| 1777393761 | 16.11° C | 10% | 1021 hPa | 0 mm | - | 487 W/m² | - |
* Rain latest hour (hover to see other rain measurements)
** Current wind speed in m/s (hover to see current wind gust speed)